(234262) = 2000 VR11 = 2004 TP

Discovered at Socorro on 2000-11-01 by LINEAR.

Orbit

Orbit type: Main Belt

Note: WebGL enabled browser required.

epoch2023-02-25.0
epoch JD2460000.5
perihelion date2021-03-20.01850
perihelion JD2459293.51850
argument of perihelion (°)345.29184
ascending node (°)49.90352
inclination (°)4.31916
eccentricity0.2312673
perihelion distance (AU)1.9666760
Tisserand w.r.t. Jupiter3.4
ΔV w.r.t. Earth (km/sec)8.9
semimajor axis (AU)2.5583354
mean anomaly (°)170.28472
mean daily motion (°/day)0.24086160
aphelion distance (AU)3.150
period (years)4.09
P-vector [x]0.81664001
P-vector [y]0.53683774
P-vector [z]0.21190641
Q-vector [x]-0.57426481
Q-vector [y]0.71915956
Q-vector [z]0.39118979
absolute magnitude16.97
phase slope0.15
uncertainty0
referenceMPO 745323
observations used333
oppositions14
arc length (days)9210
first opposition used1998
last opposition used2023
residual rms (arc-secs)0.75
perturbers coarse indicatorM-v
perturbers precise indicator003Ek
first observation date used1998-03-21.0
last observation date used2023-06-08.0
computer nameMPCLINUX
JD of orbit computation2456760.779505
perihelion JD uncertainty (days)1.3325E-04
argument of perihelion uncertainty (°)9.5929E-05
ascending node uncertainty (°)9.0111E-05
inclination uncertainty (°)7.3395E-06
eccentricity uncertainty 1.3150E-07
perihelion distance uncertainty (AU)3.4828E-07
Minimum Orbit Intersection Distances (in AU)
for orbit epoch: 2460000.5, reference: E2023-L38
Mercury1.63965
Venus1.24304
Earth0.9723
Mars0.50366
Jupiter2.27723
Saturn6.54557
Uranus15.4311
Neptune27.5728

Observations

332 total observations over interval: 1998 03 21.32617 – 2023 06 08.324546
These data are available for download (format description).

Date (UT) J2000 RA J2000 Dec Magn Location Ref
1998 03 21.32617 12 37 40.26 +00 50 22.3 21.2 V 691 – Steward Observatory, Kitt Peak-Spacewatch MPS 118310
1998 03 21.34921 12 37 38.99 +00 50 29.6 21.8 V 691 – Steward Observatory, Kitt Peak-Spacewatch MPS 118310
1998 03 21.37147 12 37 37.80 +00 50 36.1 21.5 V 691 – Steward Observatory, Kitt Peak-Spacewatch MPS 118310
2000 11 01.27810 03 11 09.99 +16 54 57.2 18.6   704 – Lincoln Laboratory ETS, New Mexico MPS 21694
2000 11 01.29199 03 11 09.21 +16 54 57.1 18.8   704 – Lincoln Laboratory ETS, New Mexico MPS 21694
2000 11 01.30587 03 11 08.40 +16 54 58.2 19.3   704 – Lincoln Laboratory ETS, New Mexico MPS 21694
2000 11 01.31974 03 11 07.60 +16 54 57.6 18.7   704 – Lincoln Laboratory ETS, New Mexico MPS 21694
2000 11 01.33361 03 11 06.82 +16 54 57.6 18.8   704 – Lincoln Laboratory ETS, New Mexico MPS 21694
2000 11 01.38488 03 11 03.84 +16 54 57.8 19.1 V 691 – Steward Observatory, Kitt Peak-Spacewatch MPS 22732
2000 11 01.40661 03 11 02.59 +16 54 57.8 18.9 V 691 – Steward Observatory, Kitt Peak-Spacewatch MPS 22732
2000 11 01.42874 03 11 01.32 +16 54 57.7 18.9 V 691 – Steward Observatory, Kitt Peak-Spacewatch MPS 22732
2000 11 02.27905 03 10 14.82 +16 54 59.5 18.9   704 – Lincoln Laboratory ETS, New Mexico MPS 21694
2000 11 02.29267 03 10 14.05 +16 54 59.2 19.4   704 – Lincoln Laboratory ETS, New Mexico MPS 21694
2000 11 02.30622 03 10 13.22 +16 54 59.4 18.8   704 – Lincoln Laboratory ETS, New Mexico MPS 21694
2000 11 02.31977 03 10 12.45 +16 54 58.4 19.5   704 – Lincoln Laboratory ETS, New Mexico MPS 21694
2000 11 02.33334 03 10 11.68 +16 54 58.2 19.3   704 – Lincoln Laboratory ETS, New Mexico MPS 21694
2000 11 21.23909 02 52 30.15 +16 51 58.4 18.7   704 – Lincoln Laboratory ETS, New Mexico MPS 22732
2000 11 21.26922 02 52 28.61 +16 51 59.8 18.7   704 – Lincoln Laboratory ETS, New Mexico MPS 22732
2000 11 21.28412 02 52 27.74 +16 51 57.7 18.2   704 – Lincoln Laboratory ETS, New Mexico MPS 22732
2000 11 27.21809 02 47 51.63 +16 52 39.1 18.8   704 – Lincoln Laboratory ETS, New Mexico MPS 22732
2000 11 27.23250 02 47 51.06 +16 52 38.4 19.5   704 – Lincoln Laboratory ETS, New Mexico MPS 22732
2000 11 27.24691 02 47 50.43 +16 52 39.8 19.0   704 – Lincoln Laboratory ETS, New Mexico MPS 22732
2000 11 27.26133 02 47 49.76 +16 52 39.9 19.0   704 – Lincoln Laboratory ETS, New Mexico MPS 22732
2000 11 27.27576 02 47 49.07 +16 52 39.4 19.2   704 – Lincoln Laboratory ETS, New Mexico MPS 22732
2004 09 07.44841 02 07 50.46 +07 54 16.2 19.9 V 691 – Steward Observatory, Kitt Peak-Spacewatch MPS 118310
2004 09 07.47534 02 07 50.70 +07 54 18.5 20.2 V 691 – Steward Observatory, Kitt Peak-Spacewatch MPS 118310
2004 09 07.50165 02 07 50.93 +07 54 20.8 19.9 V 691 – Steward Observatory, Kitt Peak-Spacewatch MPS 118310
2004 09 17.44410 02 08 06.54 +08 03 04.7 19.6 V 691 – Steward Observatory, Kitt Peak-Spacewatch MPS 118310
2004 09 17.47045 02 08 06.23 +08 03 05.1 19.7 V 691 – Steward Observatory, Kitt Peak-Spacewatch MPS 118310
2004 09 17.49725 02 08 05.94 +08 03 05.5 19.8 V 691 – Steward Observatory, Kitt Peak-Spacewatch MPS 118310
2004 10 04.25896 02 01 05.48 +07 53 36.2 18.5 R 699 – Lowell Observatory-LONEOS MPS 115870
2004 10 04.27842 02 01 04.73 +07 53 34.0   699 – Lowell Observatory-LONEOS MPS 115870
2004 10 04.29785 02 01 03.88 +07 53 31.3   699 – Lowell Observatory-LONEOS MPS 115870
2004 10 04.31733 02 01 03.10 +07 53 30.4   699 – Lowell Observatory-LONEOS MPS 115870
2004 10 05.26726 02 00 24.48 +07 52 17.7 19.1 V 691 – Steward Observatory, Kitt Peak-Spacewatch MPS 115870
2004 10 05.29656 02 00 23.18 +07 52 15.5 19.2 V 691 – Steward Observatory, Kitt Peak-Spacewatch MPS 115870
2004 10 05.32817 02 00 21.77 +07 52 13.0 19.1 V 691 – Steward Observatory, Kitt Peak-Spacewatch MPS 115870
2004 10 09.25083 01 57 28.21 +07 46 39.5 18.9   704 – Lincoln Laboratory ETS, New Mexico MPS 116767
2004 10 09.26177 01 57 27.65 +07 46 39.1 19.2   704 – Lincoln Laboratory ETS, New Mexico MPS 116767
2004 10 09.27271 01 57 27.14 +07 46 37.4 19.2   704 – Lincoln Laboratory ETS, New Mexico MPS 116767
2004 10 09.27480 01 57 27.07 +07 46 37.8 19.0 V 691 – Steward Observatory, Kitt Peak-Spacewatch MPS 116767
2004 10 09.28365 01 57 26.57 +07 46 37.4 19.0   704 – Lincoln Laboratory ETS, New Mexico MPS 116767
2004 10 09.29460 01 57 26.09 +07 46 35.1 19.4   704 – Lincoln Laboratory ETS, New Mexico MPS 116767
2004 10 09.30208 01 57 25.71 +07 46 35.5 19.0 V 691 – Steward Observatory, Kitt Peak-Spacewatch MPS 116767
2004 10 09.32910 01 57 24.36 +07 46 33.1 19.1 V 691 – Steward Observatory, Kitt Peak-Spacewatch MPS 116767
2004 10 12.24086 01 55 03.45 +07 42 03.7 18.3 R 699 – Lowell Observatory-LONEOS MPS 116767
2004 10 12.27724 01 55 01.54 +07 42 00.0   699 – Lowell Observatory-LONEOS MPS 116767
2004 10 12.31340 01 54 59.60 +07 41 56.8   699 – Lowell Observatory-LONEOS MPS 116767
2004 10 12.34973 01 54 57.73 +07 41 53.1   699 – Lowell Observatory-LONEOS MPS 116767
2004 10 14.20624 01 53 23.73 +07 38 57.5 18.6   704 – Lincoln Laboratory ETS, New Mexico MPS 116767
2004 10 14.21564 01 53 23.22 +07 38 56.9 18.6   704 – Lincoln Laboratory ETS, New Mexico MPS 116767
2004 10 14.22504 01 53 22.65 +07 38 55.8 18.6   704 – Lincoln Laboratory ETS, New Mexico MPS 116767
2004 10 14.23446 01 53 22.15 +07 38 55.3 18.5   704 – Lincoln Laboratory ETS, New Mexico MPS 116767
2004 10 20.20159 01 48 05.00 +07 29 41.9 18.9   704 – Lincoln Laboratory ETS, New Mexico MPS 117697
2004 10 20.21099 01 48 04.48 +07 29 41.5 19.0   704 – Lincoln Laboratory ETS, New Mexico MPS 117697
2004 10 20.22040 01 48 03.89 +07 29 39.9 18.9   704 – Lincoln Laboratory ETS, New Mexico MPS 117697
2004 10 20.22980 01 48 03.40 +07 29 40.1 18.6   704 – Lincoln Laboratory ETS, New Mexico MPS 117697
2004 10 20.23921 01 48 02.97 +07 29 38.5 18.9   704 – Lincoln Laboratory ETS, New Mexico MPS 117697
2004 11 03.21131 01 36 00.05 +07 16 19.8 19.0   644 – Palomar Mountain/NEAT MPS 118310
2004 11 03.23164 01 35 59.04 +07 16 19.6 19.1   644 – Palomar Mountain/NEAT MPS 118310
2004 11 03.25141 01 35 58.07 +07 16 19.2 18.7   644 – Palomar Mountain/NEAT MPS 118310
2004 11 18.19635 01 27 14.69 +07 28 33.0 19.6   704 – Lincoln Laboratory ETS, New Mexico MPS 119799
2004 11 18.20850 01 27 14.45 +07 28 34.1 20.1   704 – Lincoln Laboratory ETS, New Mexico MPS 119800
2004 11 18.22069 01 27 14.13 +07 28 35.3 19.5   704 – Lincoln Laboratory ETS, New Mexico MPS 119800
2004 11 18.23284 01 27 13.86 +07 28 37.7 19.5   704 – Lincoln Laboratory ETS, New Mexico MPS 119800
2004 12 02.11004 01 25 34.16 +08 12 53.9 19.3 R 699 – Lowell Observatory-LONEOS MPS 124601
2004 12 02.12952 01 25 34.14 +08 12 59.4   699 – Lowell Observatory-LONEOS MPS 124601
2004 12 02.14898 01 25 34.34 +08 13 03.3   699 – Lowell Observatory-LONEOS MPS 124601
2004 12 02.16844 01 25 34.42 +08 13 09.2   699 – Lowell Observatory-LONEOS MPS 124601
2008 09 06.37427 00 48 01.04 -01 49 40.4 19.4 V 703 – Catalina Sky Survey MPS 255746
2008 09 06.38257 00 48 00.82 -01 49 41.6 19.3 V 703 – Catalina Sky Survey MPS 255746
2008 09 06.39089 00 48 00.54 -01 49 43.7 19.3 V 703 – Catalina Sky Survey MPS 255746
2008 09 06.39922 00 48 00.36 -01 49 44.7 19.2 V 703 – Catalina Sky Survey MPS 255746
2008 09 20.37657 00 39 13.89 -02 34 49.1 18.1 V 703 – Catalina Sky Survey MPS 256520
2008 09 20.38395 00 39 13.64 -02 34 50.0 18.2 V 703 – Catalina Sky Survey MPS 256520
2008 09 20.39131 00 39 13.39 -02 34 51.1 18.0 V 703 – Catalina Sky Survey MPS 256520
2008 09 20.39869 00 39 13.17 -02 34 52.6 18.3 V 703 – Catalina Sky Survey MPS 256520
2008 09 22.28475 00 37 43.42 -02 41 21.1 18.7   704 – Lincoln Laboratory ETS, New Mexico MPS 256520
2008 09 22.29672 00 37 42.75 -02 41 23.3 18.9   704 – Lincoln Laboratory ETS, New Mexico MPS 256520
2008 09 22.30867 00 37 42.14 -02 41 25.6 18.9   704 – Lincoln Laboratory ETS, New Mexico MPS 256520
2008 09 22.32063 00 37 41.57 -02 41 28.3 19.0   704 – Lincoln Laboratory ETS, New Mexico MPS 256520
2008 09 22.33259 00 37 40.93 -02 41 30.3 18.6   704 – Lincoln Laboratory ETS, New Mexico MPS 256520
2008 09 23.23593 00 36 57.02 -02 44 35.5 18.7   704 – Lincoln Laboratory ETS, New Mexico MPS 256520
2008 09 23.26054 00 36 55.79 -02 44 41.1 18.8   704 – Lincoln Laboratory ETS, New Mexico MPS 256520
